[[{"header":{"parameterUnit":"m.s-1","parameterCategory":1,"la1":30.2991,"la2":30.254,"lo1":-89.0895,"lo2":-89.0444,"dy":0.0017,"dx":0.0017,"nx":28,"ny":28,"refTime":"2025-04-05T21:00:00:Z","depth":0,"parameterNumber":2,"parameterNumberName":"U-component_of_WINDS"},"data":[0,0,0,0,0,0,0,0,0,0,0,0,0,0,0,0,0,0,0,0,0,0,0,0,0,0,0,0,0,0,0,0,0,0,0,0,0,0,0,0,0,0,0,0,0,0,0,0,0,0,0,0,0,0,0,0,0,0,4.731,4.7312,0,4.7545,4.7548,4.7551,4.7535,4.7532,4.7528,4.7525,4.7772,4.7781,4.7791,0,0,0,0,0,0,0,0,0,0,0,0,0,4.6854,4.6862,4.731,4.7313,4.7316,4.7545,4.7548,4.7551,4.7536,4.7532,4.7527,4.7523,4.7769,4.778,4.7792,0,0,0,0,0,0,0,0,0,0,0,0,0,4.7067,4.6865,4.7309,4.7335,4.734,4.7544,4.7548,4.7552,4.7537,4.7531,4.7526,4.7521,4.7765,4.7779,4.7794,4.7989,0,0,4.7839,4.7845,0,0,0,0,0,0,0,0,4.7055,4.7083,4.7329,4.7334,4.7339,4.7505,4.7478,4.7699,4.7538,4.7462,4.7525,4.7519,4.7688,4.7708,4.7764,4.8,4.8011,4.784,4.7849,4.7855,4.7859,0,0,0,0,0,0,0,4.704,4.7073,4.7403,4.7332,4.7339,4.7338,4.7362,4.752,4.7602,4.7468,4.7468,4.7496,4.769,4.775,4.777,4.8014,4.7839,4.7853,4.7862,4.7867,4.8425,4.843,0,0,0,0,0,0,4.7018,4.7061,4.7395,4.741,4.7181,4.735,4.7377,4.7458,4.76,4.7616,4.75,4.7494,4.7728,4.7753,4.7779,4.8017,4.7855,4.7869,4.7877,4.8419,4.8426,4.8432,0,0,0,0,0,0,4.7009,4.7048,4.7386,4.7236,4.7278,4.7363,4.7453,4.7465,4.7525,4.7623,4.7639,4.7546,4.7724,4.7758,4.7937,4.8026,4.7875,4.7889,4.8412,4.8421,4.8429,4.8496,0,0,0,0,0,0,4.6996,4.7045,4.7118,4.7237,4.7286,4.7538,4.7459,4.7473,4.755,4.7544,4.7671,4.7687,4.7723,4.7915,4.7951,4.8043,4.79,4.8404,4.8416,4.8426,4.8486,4.8506,4.8523,0,0,0,0,0,4.6979,4.7128,4.7122,4.7162,4.7379,4.7543,4.7572,4.7609,4.7557,4.7633,4.7696,4.7683,4.801,4.7933,4.7974,4.8072,4.8399,4.8413,4.8426,4.8478,4.8502,4.8523,0,0,0,0,0,0,4.7019,4.7144,4.7139,4.733,4.7426,4.754,4.7636,4.7633,4.7747,4.7737,4.778,4.7809,4.7989,4.8049,4.7961,4.8269,4.8198,4.822,4.8224,4.8248,4.8266,4.8248,4.7913,0,0,0,0,0,4.705,4.7171,4.7274,4.7434,4.7482,4.7551,4.7624,4.7644,4.7746,4.7787,4.7863,4.7964,4.809,4.8172,4.8293,4.8495,4.8523,4.8583,4.8601,4.8616,4.8635,4.8747,4.8775,4.8477,4.8477,4.8476,0,0,4.7116,4.7199,4.7273,4.7444,4.752,4.7646,4.7585,4.7721,4.7816,4.7808,4.7981,4.8041,4.8157,4.8348,4.8436,4.8403,4.8723,4.8633,4.8644,4.8655,4.8764,4.8792,4.8817,4.8486,4.8484,4.8483,0,0,4.7299,4.7374,4.7515,4.7593,4.7709,4.7754,4.7788,4.7904,4.7943,4.8117,4.8115,4.8229,4.8444,4.8527,4.8598,4.8815,4.8807,4.8853,4.895,4.9059,4.9083,4.9104,4.9182,4.921,4.8872,4.8872,4.8872,0,4.7366,4.7554,4.7588,4.7725,4.7802,4.7799,4.7944,4.8019,4.817,4.8224,4.8184,4.8455,4.8533,4.8744,4.8797,4.8854,4.8896,4.8839,4.9076,4.9098,4.9118,4.9193,4.9223,4.8877,4.8876,4.8876,4.8875,0,4.7631,4.7762,4.7862,4.8006,4.8094,4.8234,4.8292,4.8378,4.8391,4.8441,4.862,4.8713,4.8854,4.8905,4.892,4.912,4.9096,4.9066,4.8995,4.9151,4.9222,4.9251,4.8884,4.8882,4.8881,4.8879,0,0,4.7846,4.8007,4.8044,4.811,4.8239,4.8341,4.8483,4.8619,4.8691,4.8796,4.8917,4.91,4.9073,4.9153,4.9178,4.9274,4.9441,4.9233,4.9236,4.9269,4.9669,4.9691,4.9723,4.9437,4.9443,4.9447,4.9659,0,4.8043,4.8291,4.8327,4.8547,4.8669,4.8669,4.8793,4.8887,4.8938,4.9051,4.9108,4.9237,4.9192,4.924,4.9335,4.9401,4.9522,4.9386,4.9552,4.9557,4.9523,4.9761,4.9784,4.998,4.9688,4.9692,4.9696,0,4.8306,4.8416,4.8647,4.8761,4.8813,4.8923,4.9051,4.9159,4.9266,4.9297,4.9387,4.94,4.9549,4.9472,4.9679,4.9585,4.9656,4.9699,4.9707,4.9724,4.9636,4.9785,5.0043,5.0072,4.974,4.9737,4.9733,0,4.844,4.8647,4.8812,4.8869,4.9005,4.9082,4.9143,4.9245,4.9325,4.9438,4.9491,4.962,4.9691,4.9793,4.9841,4.978,5.0046,4.9972,5.0078,5.0077,5.0133,5.0129,5.0407,5.0178,5.0178,5.0177,5.0177,0,4.8657,4.8799,4.8874,4.8976,4.9136,4.9177,4.9335,4.9394,4.9485,4.96,4.9609,4.9718,4.9775,4.9893,4.9932,5.0099,5.0131,5.0161,5.017,5.0161,5.0157,5.0208,5.0196,5.0185,5.0183,5.0182,5.018,0,4.8834,4.889,4.907,4.9184,4.9216,4.9329,4.9428,4.9528,4.9579,4.9725,4.9761,4.9842,4.9981,5.004,5.0211,5.0238,5.0429,5.0427,5.0392,5.0395,5.0497,5.0487,5.0817,5.0863,5.0603,5.0606,5.0608,0,4.8968,4.9077,4.9203,4.9279,4.9342,4.9466,4.9547,4.9593,4.9678,4.9809,4.9894,5.0033,5.0146,5.0369,5.0444,5.0576,5.0578,5.0685,5.0598,5.0585,5.0581,5.0574,5.0586,5.0701,5.0703,5.0705,5.0707,0,4.9202,4.9224,4.934,4.9466,4.9562,4.9664,4.9764,4.9827,4.9889,4.9984,5.0126,5.0213,5.0388,5.0526,5.0663,5.0728,5.0729,5.0734,5.0765,5.0757,5.0732,5.0748,5.0436,5.0726,5.0724,5.0723,5.0722,5.0721,4.9363,4.946,4.9563,4.9692,4.9772,4.9865,4.9965,5.0028,5.0146,5.029,5.0311,5.0462,5.057,5.0752,5.0823,5.0944,5.0917,5.0962,5.0974,5.0985,5.0992,5.0712,5.0969,5.0969,5.0968,5.0968,5.0967,0,4.9597,4.9664,4.9782,4.992,5.0023,5.0013,5.0123,5.021,5.0342,5.0441,5.0552,5.0716,5.085,5.0936,5.1073,5.1153,5.1157,5.1187,5.1182,5.1198,5.1007,5.0967,5.1182,5.1182,5.1182,5.1182,5.1182,5.1182,4.9731,4.9895,4.993,5.0135,5.0201,5.0348,5.0412,5.0499,5.0578,5.076,5.0871,5.0925,5.102,5.1163,5.1287,5.1309,5.136,5.1392,5.1412,5.1233,5.1211,5.119,5.1152,5.1402,5.1402,5.1593,5.1595,5.1596]},{"header":{"parameterUnit":"m.s-1","parameterCategory":1,"la1":30.2991,"la2":30.254,"lo1":-89.0895,"lo2":-89.0444,"dy":0.0017,"dx":0.0017,"nx":28,"ny":28,"refTime":"2025-04-05T21:00:00:Z","depth":0,"parameterNumber":3,"parameterNumberName":"V-component_of_WINDS"},"data":[0,0,0,0,0,0,0,0,0,0,0,0,0,0,0,0,0,0,0,0,0,0,0,0,0,0,0,0,0,0,0,0,0,0,0,0,0,0,0,0,0,0,0,0,0,0,0,0,0,0,0,0,0,0,0,0,0,0,-6.671,-6.6714,0,-6.7031,-6.7034,-6.7038,-6.7055,-6.7051,-6.7048,-6.7044,-6.7366,-6.7378,-6.739,0,0,0,0,0,0,0,0,0,0,0,0,0,-6.6107,-6.6118,-6.671,-6.6714,-6.6718,-6.703,-6.7034,-6.7039,-6.7056,-6.7051,-6.7047,-6.7043,-6.7362,-6.7376,-6.7391,0,0,0,0,0,0,0,0,0,0,0,0,0,-6.6392,-6.6121,-6.6709,-6.6764,-6.6772,-6.7029,-6.7035,-6.704,-6.7057,-6.7051,-6.7046,-6.704,-6.7358,-6.7375,-6.7393,-6.7615,0,0,-6.7448,-6.7456,0,0,0,0,0,0,0,0,-6.6376,-6.6414,-6.6752,-6.6761,-6.677,-6.6997,-6.694,-6.7233,-6.7058,-6.6949,-6.7044,-6.7038,-6.7248,-6.7274,-6.7346,-6.763,-6.7644,-6.745,-6.746,-6.7468,-6.7473,0,0,0,0,0,0,0,-6.6356,-6.64,-6.6836,-6.6757,-6.6768,-6.6771,-6.6805,-6.6995,-6.7125,-6.6958,-6.696,-6.6998,-6.7251,-6.7329,-6.7354,-6.7648,-6.7449,-6.7465,-6.7476,-6.7483,-6.813,-6.8136,0,0,0,0,0,0,-6.6326,-6.6384,-6.6826,-6.6846,-6.6556,-6.6786,-6.6825,-6.693,-6.7123,-6.7147,-6.7002,-6.6997,-6.7301,-6.7333,-6.7365,-6.7639,-6.7468,-6.7485,-6.7495,-6.8124,-6.8132,-6.8139,0,0,0,0,0,0,-6.6313,-6.6366,-6.6813,-6.6616,-6.6673,-6.6803,-6.6921,-6.6939,-6.7017,-6.7157,-6.7179,-6.7058,-6.7298,-6.734,-6.7553,-6.765,-6.7493,-6.7509,-6.8117,-6.8126,-6.8135,-6.8187,0,0,0,0,0,0,-6.6296,-6.6361,-6.6448,-6.6618,-6.6684,-6.6998,-6.6927,-6.6949,-6.7049,-6.7045,-6.7215,-6.7238,-6.7297,-6.7526,-6.7571,-6.7672,-6.7524,-6.8108,-6.8121,-6.8132,-6.8177,-6.8197,-6.8214,0,0,0,0,0,-6.6274,-6.6448,-6.6452,-6.6506,-6.6795,-6.7004,-6.7041,-6.7107,-6.7056,-6.7144,-6.7234,-6.7232,-6.7632,-6.7548,-6.7599,-6.7707,-6.8103,-6.8117,-6.8131,-6.8169,-6.8193,-6.8214,0,0,0,0,0,0,-6.6284,-6.6471,-6.6478,-6.6712,-6.6842,-6.7006,-6.7119,-6.7131,-6.7276,-6.7267,-6.734,-6.7378,-6.759,-6.7669,-6.7572,-6.7932,-6.7861,-6.7886,-6.7872,-6.7897,-6.7915,-6.7892,-6.7539,0,0,0,0,0,-6.6314,-6.6469,-6.6623,-6.6815,-6.688,-6.6988,-6.7081,-6.7122,-6.7258,-6.7312,-6.7418,-6.7549,-6.7704,-6.7804,-6.7955,-6.8188,-6.8225,-6.8287,-6.8305,-6.832,-6.8341,-6.8471,-6.85,-6.8186,-6.8186,-6.8185,0,0,-6.6376,-6.6498,-6.6591,-6.682,-6.6926,-6.7084,-6.7034,-6.7203,-6.7321,-6.7337,-6.7546,-6.7628,-6.7778,-6.8003,-6.8107,-6.8076,-6.8436,-6.8338,-6.8349,-6.8362,-6.8488,-6.8518,-6.8544,-6.8196,-6.8194,-6.8192,0,0,-6.6571,-6.6679,-6.6851,-6.6958,-6.7119,-6.719,-6.7231,-6.7394,-6.745,-6.7661,-6.7677,-6.7816,-6.8082,-6.8189,-6.8278,-6.8514,-6.8518,-6.856,-6.8657,-6.8783,-6.8807,-6.883,-6.8914,-6.8944,-6.8581,-6.8581,-6.8581,0,-6.6628,-6.6869,-6.6937,-6.7108,-6.7208,-6.7232,-6.7406,-6.7506,-6.7706,-6.7774,-6.7736,-6.8071,-6.8174,-6.8425,-6.8482,-6.8553,-6.8602,-6.8542,-6.8799,-6.8822,-6.8843,-6.8925,-6.8957,-6.8585,-6.8585,-6.8584,-6.8584,0,-6.6931,-6.7098,-6.7217,-6.7413,-6.7526,-6.7697,-6.779,-6.7896,-6.7926,-6.8,-6.8214,-6.8339,-6.8515,-6.8577,-6.8607,-6.8832,-6.8808,-6.8783,-6.8715,-6.8877,-6.8954,-6.8986,-6.8591,-6.859,-6.8588,-6.8587,0,0,-6.7142,-6.7375,-6.7418,-6.7507,-6.7686,-6.7816,-6.7986,-6.8161,-6.8251,-6.8388,-6.8533,-6.8758,-6.8737,-6.8838,-6.888,-6.899,-6.9169,-6.8952,-6.8957,-6.8989,-6.9425,-6.9443,-6.9478,-6.9172,-6.9178,-6.9183,-6.9412,0,-6.7358,-6.7666,-6.7733,-6.7998,-6.8152,-6.8178,-6.8327,-6.8452,-6.8525,-6.8665,-6.8745,-6.8904,-6.8864,-6.8925,-6.9035,-6.9124,-6.9258,-6.9108,-6.9307,-6.9313,-6.927,-6.9519,-6.9538,-6.9748,-6.9443,-6.9448,-6.9452,0,-6.7651,-6.7798,-6.8079,-6.8239,-6.8306,-6.8439,-6.8605,-6.8739,-6.888,-6.8926,-6.904,-6.907,-6.9247,-6.9169,-6.9414,-6.9311,-6.9395,-6.9451,-6.9461,-6.9483,-6.9393,-6.9548,-6.9817,-6.9849,-6.9501,-6.9497,-6.9493,0,-6.7778,-6.8046,-6.8249,-6.8324,-6.8515,-6.8608,-6.8692,-6.8828,-6.8929,-6.9073,-6.9139,-6.93,-6.9389,-6.9512,-6.9585,-6.9521,-6.9824,-6.9752,-6.9866,-6.9865,-6.993,-6.9925,-7.0217,-6.9983,-6.9982,-6.9982,-6.9981,0,-6.8013,-6.8184,-6.8309,-6.8434,-6.8626,-6.87,-6.8887,-6.897,-6.9091,-6.9231,-6.9261,-6.9392,-6.9479,-6.9621,-6.9678,-6.9872,-6.9912,-6.9953,-6.9966,-6.9951,-6.9946,-7.0008,-6.9996,-6.999,-6.9988,-6.9987,-6.9985,0,-6.8188,-6.8278,-6.8502,-6.8664,-6.8709,-6.8844,-6.8982,-6.9104,-6.9177,-6.9354,-6.94,-6.9515,-6.9684,-6.9769,-6.9978,-7.0016,-7.0236,-7.0239,-7.0189,-7.0195,-7.0305,-7.0293,-7.0648,-7.0699,-7.0429,-7.0432,-7.0434,0,-6.8332,-6.8465,-6.8643,-6.874,-6.8826,-6.8982,-6.9086,-6.9163,-6.9269,-6.9441,-6.9541,-6.9712,-6.9853,-7.0121,-7.0223,-7.0383,-7.0391,-7.0504,-7.0415,-7.0396,-7.0394,-7.0386,-7.0399,-7.052,-7.0523,-7.0525,-7.0527,0,-6.8579,-6.8618,-6.8767,-6.8933,-6.9057,-6.919,-6.9322,-6.9399,-6.9497,-6.9614,-6.9789,-6.9898,-7.0113,-7.0282,-7.045,-7.0533,-7.0547,-7.0554,-7.0589,-7.0575,-7.0541,-7.0562,-7.0233,-7.0545,-7.0544,-7.0542,-7.0541,-7.054,-6.8745,-6.8864,-6.9008,-6.9174,-6.9281,-6.9403,-6.9526,-6.9616,-6.9763,-6.9946,-6.9981,-7.0166,-7.0304,-7.0531,-7.0619,-7.0764,-7.0739,-7.0789,-7.0803,-7.0814,-7.082,-7.0517,-7.0794,-7.0794,-7.0793,-7.0793,-7.0793,0,-6.8994,-6.9088,-6.924,-6.9424,-6.9554,-6.9557,-6.9702,-6.981,-6.9973,-7.0101,-7.024,-7.044,-7.0604,-7.0719,-7.0885,-7.0978,-7.0988,-7.1019,-7.1014,-7.1033,-7.0833,-7.0786,-7.1008,-7.1008,-7.1008,-7.1008,-7.1008,-7.1008,-6.914,-6.9342,-6.9398,-6.9653,-6.9745,-6.9929,-7.0012,-7.0124,-7.0227,-7.045,-7.0587,-7.0661,-7.0784,-7.0959,-7.1109,-7.1138,-7.1198,-7.123,-7.1258,-7.1069,-7.1047,-7.1025,-7.0982,-7.1242,-7.1242,-7.1447,-7.1449,-7.145]}]]